CZ-6A DEB, 54904

Orbit data source: Space-Track

CZ-6A DEB, 54904 is space debris in SSO originally from a launch on Fri, 11 Nov 2022 UTC launched from the Taiyaun Space Center, China (TSC). Debris objects in space refer to the collection of defunct objects orbiting the Earth. Examples of debris include non-operational satellites, rocket bodies, and fragments generated from explosions, collisions, or faulty payload assembly.

Loading next visibility...
Identifier
54904, 2022-151QR
Orbit
SSO
Country
Flag of CNCN / PRC
Related business
Manufacturer
SAST
Mission
Spacecraft
Bus & Motor
Unknown
Mass
Unknown
Launch date (UTC)
2022-11-11 (3 years ago)
Launch vehicle
Unknown
Launch site
Taiyaun Space Center, China (TSC)
Object type
Payload
Rocket body
Debris
Shape & HBR
Unknown shape, 0.1 m
Radar Cross Section
Small (<0.1 m²)

Expand to show TLE details & history
Last TLE update: 10 hours ago

TLE from 10 hours ago
0 CZ-6A DEB
1 54904U 22151QR  26130.27953586  .00004592  00000-0  10302-2 0  9998
2 54904  99.0567 241.0105 0084947 146.8311 213.8249 14.54902420183258
Epoch: 2026-05-10T06:42Z
TLE epoch observation values (Epoch: 2026-05-10T06:42:31.898Z)
Latitude
-0.00009°
Longitude
-87.70729°
Altitude
762.818 km
Speed
7.446 km/s
True Right ascension
16h 04m 02s
True Declination
0° 00' 00"
Sunlit
Object was in full shadow at epoch
Visualization orbit readout
Latitude
Unknown
Longitude
Unknown
Altitude
Unknown
Speed
Unknown
Apparent Right ascension
Unknown
Apparent Declination
Unknown
Sunlit
N/A
Visualization observer readout
Local Sidereal Time
01:09:06
Azimuth
Unknown
Elevation
Unknown
Doppler factor
Unknown
Orbital elements
Apogee altitude
766.995 km
Perigee altitude
646.626 km
Semi-major axis
7,084.948 km
Eccentricity
0.00849
Inclination
99.0567°
RAAN
241.0105°
Arg. of periapsis
146.8311°
True anomaly
213.28779°
Mean anomaly
213.8249°
Eccentric anomaly
213.55587°
Mean motion
3.63947 °/min
Orbital period
98.92 mins
BSTAR
0.0010302
Loading maneuver chart data...
Computing Atmospheric mass density...
Loading historical data...
Loading historical data...
Loading historical data...
Loading historical data...
Loading historical data...
Loading historical data...
Loading historical data...

Documentation

Showing up to 5 results
|